Location: Grantham
(50.0698°N, 112.0083°W)
Time: 23:36:18
(UTC+00:00)

ISS - Pass Details

Date: 06 December 2021
Orbit: 413 x 422 km, 51.6° (Epoch: 24 January)

Event Time Altitude Azimuth Distance (km) Brightness Sun altitude
Rises 01:23:29 0° 287° (WNW) 2,385 1.1 -17.8°
Reaches altitude 10° 01:25:45 10° 276° (W) 1,515 0.2 -18.1°
Maximum altitude 01:28:46 30° 214° (SSW) 794 -1.9 -18.6°
Enters shadow 01:31:01 15° 158° (SSE) 1,247 -1.5 -18.9°
